Location: Muck Cross
(36.7179°N, 78.3678°W)
Time: 15:04:41
(UTC+00:00)

Vanguard 3 - All Passes

Search period start: 30 March 2023 00:00
Search period end: 09 April 2023 00:00
Orbit: 508 x 3249 km, 33.4° (Epoch: 30 March)

Date Brightness Start Highest point End Pass type
(mag) Time Alt. Az. Time Alt. Az. Time Alt. Az.
30 Mar - 04:14:20 10° S 04:25:37 29° SE 04:40:20 10° E visible
30 Mar - 06:23:33 10° SW 06:39:26 61° SSE 06:58:46 10° E visible
30 Mar - 08:37:02 10° WSW 08:56:09 80° S 09:14:20 10° E visible
30 Mar - 10:53:10 10° W 11:13:04 71° SSW 11:27:48 10° ESE daylight
30 Mar - 13:11:10 10° W 13:27:17 40° SW 13:38:08 10° SSE daylight
31 Mar - 03:02:42 10° SSE 03:09:18 15° SE 03:17:12 10° E visible
31 Mar - 05:07:58 10° SSW 05:21:22 47° SE 05:39:26 10° E visible
31 Mar - 07:19:31 10° WSW 07:36:47 74° SSE 07:56:17 10° E visible
31 Mar - 09:34:17 10° W 09:54:03 79° S 10:11:07 10° ESE visible
31 Mar - 11:51:07 10° W 12:09:58 56° SSW 12:23:17 10° SE daylight
31 Mar - 14:10:59 10° W 14:22:29 23° SW 14:31:02 10° S daylight
01 Apr - 03:53:40 10° S 04:04:18 31° SE 04:18:58 10° E visible
01 Apr - 06:02:58 10° SW 06:17:56 64° SSE 06:37:29 10° E visible
01 Apr - 08:16:10 10° W 08:34:36 80° S 08:53:32 10° E visible
01 Apr - 10:31:50 10° W 10:51:38 70° SSW 11:07:21 10° ESE visible
01 Apr - 12:49:37 10° W 13:06:02 38° SW 13:17:42 10° SSE daylight
02 Apr - 02:41:39 10° SSE 02:48:10 16° SE 02:56:16 10° E night (unlit)
02 Apr - 04:47:26 10° SW 04:59:58 49° SE 05:17:55 10° E visible
02 Apr - 06:58:53 10° WSW 07:15:14 76° SSE 07:35:09 10° E visible
02 Apr - 09:13:15 10° W 09:32:30 78° S 09:50:25 10° ESE visible
02 Apr - 11:29:39 10° W 11:48:33 54° SSW 12:02:48 10° SE daylight
02 Apr - 13:49:41 10° W 14:01:17 21° SW 14:10:17 10° S daylight
03 Apr - 03:33:08 10° SSW 03:43:04 32° SE 03:57:26 10° E visible
03 Apr - 05:42:30 10° SW 05:56:28 66° SSE 06:16:02 10° E visible
03 Apr - 07:55:24 10° W 08:13:01 80° S 08:32:32 10° E visible
03 Apr - 10:10:35 10° W 10:30:03 68° SSW 10:46:41 10° ESE visible
03 Apr - 12:28:07 10° W 12:44:37 36° SW 12:57:03 10° SSE daylight
04 Apr - 02:20:50 10° SSE 02:27:06 17° SE 02:35:08 10° E night (unlit)
04 Apr - 04:27:03 10° SW 04:38:39 51° SSE 04:56:16 10° E visible
04 Apr - 06:38:21 10° WSW 06:53:43 77° S 07:13:49 10° E visible
04 Apr - 08:52:17 10° W 09:10:51 76° SSW 09:29:31 10° ESE visible
04 Apr - 11:08:15 10° W 11:26:57 52° SSW 11:42:04 10° SE daylight
04 Apr - 13:28:28 10° W 13:39:56 20° SW 13:49:14 10° S daylight
05 Apr - 03:12:42 10° SSW 03:21:54 33° SE 03:35:47 10° E visible
05 Apr - 05:22:08 10° WSW 05:35:06 68° SSE 05:54:25 10° E visible
05 Apr - 07:34:44 10° W 07:51:25 80° S 08:11:20 10° E visible
05 Apr - 09:49:26 10° W 10:08:22 65° SSW 10:25:49 10° SE visible
05 Apr - 12:06:42 10° W 12:23:03 34° SW 12:36:10 10° SSE daylight
06 Apr - 02:00:10 10° SSE 02:06:06 17° SE 02:13:54 10° E night (unlit)
06 Apr - 04:06:44 10° SW 04:17:26 52° SSE 04:34:29 10° E visible
06 Apr - 06:17:54 10° WSW 06:32:15 78° S 06:52:18 10° E visible
06 Apr - 08:31:25 10° W 08:49:10 75° SSW 09:08:25 10° ESE visible
06 Apr - 10:46:57 10° W 11:05:14 49° SSW 11:21:08 10° SE daylight
06 Apr - 13:07:24 10° W 13:18:29 19° SW 13:27:53 10° SSW daylight
07 Apr - 02:52:22 10° SSW 03:00:50 34° SE 03:14:04 10° E visible
07 Apr - 05:01:50 10° WSW 05:13:48 69° SSE 05:32:39 10° E visible
07 Apr - 07:14:09 10° W 07:29:50 79° S 07:49:58 10° ESE visible
07 Apr - 09:28:22 10° W 09:46:35 63° SSW 10:04:42 10° SE visible
07 Apr - 11:45:25 10° W 12:01:22 32° SW 12:15:00 10° SSE daylight
08 Apr - 01:39:39 10° SSE 01:45:10 18° SE 01:52:35 10° E visible
08 Apr - 03:46:31 10° SW 03:56:19 54° SSE 04:12:38 10° E visible
08 Apr - 05:57:32 10° WSW 06:10:51 78° S 06:30:39 10° E visible
08 Apr - 08:10:39 10° W 08:27:26 73° SSW 08:47:05 10° ESE visible
08 Apr - 10:25:46 10° W 10:43:26 46° SW 10:59:55 10° SSE visible
08 Apr - 12:46:33 10° W 12:56:55 17° SW 13:06:09 10° SSW daylight
